www.pogodaiklimat.ru

Погода и климат >> Архив погоды >> Россия >> Чукотка >> Анадырь


АРХИВ ПОГОДЫ в Анадыре

Время (UTC), дата Ветер
(напр.,м/с)
 
Видим.   Явления Облачность Т
(С)
Тd
(С)
f
(%)
Тe
(С)
Тes
(С)
Комфортность P
(гПа)
Po
(гПа)
Тmin
(С)
Tmax
(С)
R
(мм)
R24
(мм)
S
(см)
09 18.06 СВ 9-13
{14}
50 км 8/6 600 м
[Cb cap Ac trans]
+15.5 +9.3 67 +13 +13 тепло 1015.0 1007.7
12 18.06 Ю 4
{16}
50 км 8/5 600 м
[Cb cap Ac trans]
+13.4 +5.6 59 +12 +12 тепло 1013.7 1006.4
15 18.06 Ю 6 50 км 8/3 600 м
[Cb cap Ac lent]
+12.2 +7.3 72 +10 +10 тепло 1013.7 1006.4
18 18.06 Ю 7
{8}
50 км ясно +13.3 +6.8 65 +11 +12 тепло 1013.6 1006.3 +12.1
21 18.06 Ю 5
{9}
50 км 1/0
[Ci fib]
+14.5 +8.1 65 +13 +18 тепло 1013.7 1006.4
00 19.06 Ю 5
{7}
50 км 3/0
[Ci fib]
+15.7 +10.0 69 +15 +21 тепло 1013.9 1006.6
03 19.06 Ю 6
{7}
50 км 9/0
[Cs]
+16.3 +10.0 66 +15 +18 тепло 1013.3 1006.1
06 19.06 Ю 6
{8}
50 км 9/0
[Ac trans Cs]
+16.6 +8.6 59 +16 +16 тепло 1013.0 1005.8 +17.1
09 19.06 ЮВ 4
{9}
50 км 9/3 600 м
[Sc Ac trans]
+18.8 +8.4 51 +19 +19 тепло 1013.2 1006.0
12 19.06 Ю 5
{6}
50 км 9/5 600 м
[Cb cap Ac trans Ci fib]
+14.7 +9.3 70 +13 +13 тепло 1014.0 1006.7
15 19.06 Ю 7
{8}
50 км 9/8 600 м
[Cb cap Ac trans Ci fib]
+12.7 +8.2 74 +10 +10 тепло 1014.5 1007.2
18 19.06 Ю 4
{8}
50 км 9/3 600 м
[Sc Ac trans Cs]
+13.7 +9.8 77 +12 +13 тепло 1015.5 1008.2 +12.6
21 19.06 Ю 7
{8}
50 км 9/0
[Ac trans Cs]
+15.4 +9.7 69 +14 +15 тепло 1015.9 1008.6
00 20.06 Ю 3
{8}
50 км 10/0
[Ac trans Cs]
+16.5 +10.9 69 +16 +24 тепло 1016.3 1009.1
03 20.06 Ю 4
{6}
50 км 9/0
[Ac trans Cs]
+20.4 +8.6 47 +22 +27 комфорт 1015.9 1008.7
06 20.06 ЮВ 6
{9}
50 км 9/0
[Ac trans Ci fib]
+18.5 +7.7 49 +18 +19 тепло 1015.5 1008.3 +20.4
09 20.06 ЮВ 3
{11}
50 км 9/3 600 м
[Sc Ac As Ci fib]
+17.0 +7.7 54 +17 +17 тепло 1016.0 1008.8
12 20.06 Ю 4
{8}
50 км 9/3 600 м
[Sc Ac trans Ci fib]
+13.5 +8.5 72 +12 +12 тепло 1016.9 1009.6
15 20.06 ЮВ 5
{7}
50 км 9/5 600 м
[Sc Ac trans Ci fib]
+12.0 +8.4 79 +10 +10 тепло 1017.4 1010.1
18 20.06 ЮВ 6
{8}
50 км 9/8 600 м
[Cb cap Ac trans]
+12.6 +9.9 84 +10 +10 тепло 1017.6 1010.3 +11.7
21 20.06 Ю 4
{7}
50 км 9/3 600 м
[Sc Ac trans Cs]
+14.5 +10.3 76 +13 +16 тепло 1018.2 1010.9
00 21.06 Ю 3
{6}
50 км 8/3 600 м
[Cu med, cong Ac lent Ci fib]
+15.9 +11.1 73 +15 +20 тепло 1018.3 1011.0
03 21.06 З 5
{7}
50 км 6/3 600 м
[Cu med, cong Ac trans Ci fib]
+18.7 +9.9 57 +19 +22 тепло 1017.4 1010.2
06 21.06 З 5
{8}
50 км 3/1 600 м
[Cu hum Ac lent Ci fib]
+19.0 +10.0 56 +19 +21 тепло 1017.2 1010.0 +19.4
09 21.06 СЗ 3
{7}
50 км 3/1 600 м
[Cu hum Ac lent Ci fib]
+16.9 +10.5 66 +17 +17 тепло 1017.7 1010.5
12 21.06 С 1
{4}
50 км 3/1 600 м
[Cu hum Ac trans]
+14.6 +9.2 70 +15 +15 тепло 1018.5 1011.2
15 21.06 Ю 4
{3}
50 км 3/1 600 м
[Cu hum Ac trans]
+13.3 +7.8 69 +12 +12 тепло 1018.7 1011.4
18 21.06 Ю 2
{3}
50 км 8/5 600 м
[Sc Ac trans]
+12.5 +10.7 89 +12 +12 тепло 1019.3 1012.0 +11.6
21 21.06 СЗ 7
{9}
50 км 9/6 600 м
[Sc Ac trans]
+14.9 +12.0 83 +13 +13 тепло 1020.2 1012.9
00 22.06 СЗ 5
{10}
50 км 8/5 600 м
[Sc Ac trans]
+16.7 +8.8 60 +16 +18 тепло 1020.2 1013.0
03 22.06 З 5
{7}
50 км 8/4 600 м
[Sc Ac trans]
+17.6 +9.2 58 +17 +19 тепло 1019.7 1012.5
06 22.06 З 3
{7}
50 км 9/5 600 м
[Sc Ac trans]
+17.8 +8.8 56 +18 +19 тепло 1019.6 1012.4 +18.7
09 22.06 СЗ 2
{4}
50 км 9/4 600 м
[Sc Ac trans]
+16.3 +10.5 69 +16 +17 тепло 1019.8 1012.6
12 22.06 ЮВ 1
{3}
50 км 6/4 600 м
[Sc Ac trans]
+14.2 +8.9 70 +15 +15 тепло 1020.3 1013.0
15 22.06 Ю 2
{3}
50 км 9/8 600 м
[Cb cap Ac trans]
+13.4 +9.9 79 +13 +13 тепло 1020.6 1013.3
18 22.06 ЮВ 1
{3}
50 км 3/0
[Ac trans]
+16.9 +12.1 73 +18 +20 тепло 1020.9 1013.7 +13.4
21 22.06 Ю 7
{9}
50 км 3/1 600 м
[Cu med, cong Ac trans]
+15.7 +10.9 73 +14 +16 тепло 1021.4 1014.1
00 23.06 ЮВ 8-11
{11}
50 км 8/5 600 м
[Cb calv Ci fib]
+18.0 +10.5 62 +17 +18 тепло 1021.5 1014.3
03 23.06 ЮВ 11-13
{14}
50 км 5/5 600 м
[St]
+15.6 +9.4 67 +13 +13 тепло 1021.9 1014.6
06 23.06 В 11-14
{15}
50 км 9/8 300 м
[Cb cap Ac trans Ci fib]
+11.7 +8.2 79 +8 +8 по сезону 1022.8 1015.4 +18.3
09 23.06 В 7
{15}
50 км 9/8 300 м
[Cb cap Ac trans Ci fib]
+9.7 +7.4 86 +6 +6 по сезону 1023.8 1016.3
12 23.06 В 7
{10}
50 км 9/8 600 м
[Cb cap Ac trans]
+9.4 +6.8 84 +5 +5 по сезону 1024.1 1016.6
15 23.06 В 6
{9}
50 км 9/9 600 м
[Cb cap]
+9.3 +6.5 83 +6 +6 по сезону 1023.9 1016.4
18 23.06 В 6
{9}
50 км 10/10 300 м
[Cb cap]
+9.6 +6.8 83 +6 +6 по сезону 1024.3 1016.8 +8.9
21 23.06 ЮВ 3
{7}
20 км слаб. ливневой дождь 10/10 300 м
[Cb cap]
+10.7 +7.4 80 +9 +9 тепло 1024.3 1016.8
00 24.06 ЮВ 5
{7}
12 км слаб. ливневой дождь 10/10 300 м
[Cb cap]
+10.2 +8.0 86 +7 +7 по сезону 1024.1 1016.6
03 24.06 ЮВ 7
{9}
50 км {ливн. осадки} 10/10 600 м
[Cb cap]
+10.1 +7.4 83 +6 +6 по сезону 1023.5 1016.0
06 24.06 ЮВ 5
{9}
50 км {ливн. осадки} 9/9 600 м
[Cb cap]
+10.6 +7.3 80 +8 +8 по сезону 1023.1 1015.6 +11.7 0.0
09 24.06 ЮВ 6
{8}
50 км 3/3 600 м
[Sc Ac trans]
+10.1 +7.4 83 +7 +7 по сезону 1022.8 1015.3
12 24.06 ЮВ 1
{8}
50 км 3/0
[Ac trans]
+7.8 +4.6 80 +7 +7 по сезону 1023.5 1016.0
15 24.06 ЮВ 4
{6}
50 км 3/0
[Ac trans]
+7.4 +1.7 67 +4 +4 по сезону 1022.9 1015.4
18 24.06 штиль 0
{5}
50 км 3/1 600 м
[Cu med, cong Ac trans]
+11.1 +2.9 57 +11 +14 тепло 1023.1 1015.6 +6.7
21 24.06 Ю 4
{7}
50 км 8/4 600 м
[Cb cap Ac trans]
+12.4 +7.4 72 +11 +13 тепло 1022.9 1015.5
00 25.06 Ю 6
{7}
50 км 8/5 600 м
[Cb cap Ac trans]
+11.9 +6.4 69 +9 +11 по сезону 1021.9 1014.6
03 25.06 Ю 7
{8}
50 км 8/5 600 м
[Cb cap Ac trans]
+11.7 +5.5 66 +9 +10 по сезону 1020.4 1013.1
06 25.06 Ю 6
{10}
50 км 8/5 600 м
[Cb cap Ac trans]
+11.3 +3.4 58 +9 +9 по сезону 1020.1 1012.6 +13.5

 

Местоположение метеостанции Анадырь (Чукотка, Россия): широта 64.78 долгота 177.50 высота над уровнем моря 61 м.

В архиве по умолчанию представлена погода в Анадыре за последнюю неделю. Архивные данные за месяц целиком и за предыдущие месяцы, начиная с января 2011 года, Вы можете получить, выбрав интересующий диапазон дат из раскрывающегося списка и нажав кнопку "Ввод!".


*Определитесь, кто Вы:
робот инопланетянин человек

Внимание! Время в таблицах - всемирное. Для получения местного времени необходимо прибавить поправку, которая равна 12 ч.

Смотрите также архив погоды в соседних городах и на ближайших метеорологических станциях:

Погода в Анадыре АМС (Чукотка, Россия) (7 км)
Погода в Канчалане (Чукотка, Россия) (58 км)
Погода в Танюрере (Чукотка, Россия) (147 км)
Погода в Эньмувееме (Чукотка, Россия) (263 км)
Погода в Марково (Чукотка, Россия) (337 км)
Погода в Майской (Чукотка, Россия) (457 км)
Погода в Слаутном (Камчатский край, Россия) (504 км)
Погода в Паляваам-Глубокой (Чукотка, Россия) (505 км)
Погода в Илирнее (Чукотка, Россия) (513 км)
Погода в Комсомольской (Чукотка, Россия) (525 км)

Пояснения к столбцам:

Ветер - указаны скорость ветра в м/с - средняя за 10 мин, порывы в срок и между сроками (в фигурных скобках) и направление, откуда дует ветер: С - северный, СВ - северо-восточный, В - восточный, ЮВ - юго-восточный, Ю - южный, ЮЗ - юго-западный, З - западный, СЗ - северо-западный.
Видимость - горизонтальная дальность видимости в метрах или километрах. При видимости от 1 до 10 км при отсутствии осадков обычно наблюдается дымка, при ухудшении видимости до 1 км и менее - туман. В сухую погоду видимость может ухудшаться дымом, пылью или мглою.
Явления - указаны атмосферные явления, наблюдавшиеся в срок или в последний час перед сроком; фигурными скобками обозначены явления, наблюдавшиеся между сроками (за 1-3 часа до срока); квадратными скобками обозначены град или гололедные отложения с указанием их диаметра в мм.
Облачность - указаны через наклонную черту общая и нижняя облачность в баллах и высота нижней границы облаков в метрах; квадратными скобками обозначены формы облаков: Ci - перистые, Cs - перисто-слоистые, Cc - перисто-кучевые, Ac - высококучевые, As - высокослоистые, Sc - слоисто-кучевые, Ns - слоисто-дождевые, Cu - кучевые, Cb - кучево-дождевые. Подробнее классификацию облаков см. в Атласе облаков (PDF).
T - Температура воздуха - температура, измеренная на высоте 2 м над землей.
Td - Температура точки росы - температура, при понижении до которой содержащийся в воздухе водяной пар достигнет насыщения.
f - Относительная влажность воздуха - влажноcть воздуха, измеренная на высоте 2 м над землей.
Te - Эффективная температура - температура, которую ощущает одетый по сезону человек в тени. Характеристика душности погоды. При расчете учитывается влияние влажности воздуха и скорости ветра на теплоощущения человека.
Tes - Эффективная температура на солнце - температура, которую ощущает человек, с поправкой на солнечный нагрев. Характеристика знойности погоды. Зависит от высоты солнца над горизонтом, облачности и скорости ветра. Ночью, в пасмурную погоду, а также при ветре 12 м/с и более поправка равна нулю.
P - Атмосферное давление - приведенное к уровню моря атмосферное давление.
Po - Атмосферное давление - измеренное на уровне метеостанции атмосферное давление.
Tmin - Минимальная температура - минимум температуры воздуха на высоте 2 м над землей.
Tmax - Максимальная температура - максимум температуры воздуха на высоте 2 м над землей.
R - Количество осадков - Количество выпавших осадков за период времени, мм. При наведении курсора мыши на число - период времени, за который выпало указанное количество осадков.
R24 - Количество осадков - Количество выпавших осадков за 24 часа, мм.
S - Снежный покров - Высота снежного покрова, см. При наведении курсора мыши на число - состояние снежного покрова и степень покрытия местности в баллах.